Probability
2 1 0 0 0 0 0 0 0 0 0 0 0 0 0 0 1 3 5 7 9 13 18 23 25 23 19 14 10 7 5 4 4 4 4 4 3 3 3 3 2 1 0 0 0 0 0 0 0
2 1 0 0 0 0 0 0 0 0 0 0 0 0 0 1 2 5 8 10 14 19 22 24 25 23 19 16 13 9 6 5 4 3 3 3 3 3 3 3 2 1 1 1 0 0 0 0 0
2 1 0 1 0 0 0 0 0 0 0 0 1 1 1 1 3 8 12 15 19 25 26 25 26 24 21 19 17 13 8 6 5 5 4 3 2 3 3 2 1 1 1 1 0 0 0 0 0
2 1 0 0 0 0 0 0 0 0 0 0 1 2 2 2 5 11 16 19 24 28 28 28 28 26 23 20 18 15 11 7 7 8 7 5 3 2 1 1 0 0 1 1 0 0 0 0 0
2 1 0 0 0 0 0 0 0 0 0 0 1 3 3 6 11 18 21 24 26 29 30 29 28 27 23 19 17 16 13 9 10 11 10 7 4 1 0 0 0 0 0 0 0 0 0 0 0
2 1 0 0 0 0 0 0 0 0 0 0 1 4 5 9 17 24 27 28 29 31 31 29 27 25 22 19 17 16 14 13 13 13 12 9 4 1 0 0 0 0 0 0 0 0 0 0 0
2 1 0 0 0 0 0 0 0 0 0 0 1 4 5 10 19 26 30 31 32 33 33 30 27 25 23 21 20 19 17 17 16 14 12 9 6 3 1 0 0 0 0 0 0 0 0 0 0
1 0 0 0 0 0 0 0 0 0 1 2 3 3 5 10 19 27 32 33 32 32 32 29 27 25 24 24 23 22 20 18 17 14 11 8 7 5 3 1 1 1 0 0 0 0 0 0 0
0 0 0 0 0 0 0 0 0 0 3 6 7 7 9 14 22 30 33 32 29 28 28 27 27 26 25 24 24 22 20 18 15 12 9 8 7 6 3 1 1 1 0 0 0 0 0 0 0
0 0 0 0 0 0 0 0 0 1 4 8 11 14 18 21 25 31 33 30 26 26 26 26 26 26 25 23 22 20 18 16 12 9 7 7 6 5 2 1 1 1 0 0 0 0 0 0 0
0 0 0 0 0 0 0 0 0 1 3 6 11 16 22 24 23 26 28 26 25 25 26 26 26 25 23 20 18 16 13 11 9 6 6 6 4 2 1 0 0 0 0 0 0 0 0 0 0
0 0 0 0 0 0 0 0 0 0 2 5 8 14 19 22 20 21 22 22 24 25 25 25 25 23 19 15 13 12 9 6 5 5 6 5 2 0 0 0 0 0 0 0 0 0 0 0 0
0 0 0 0 0 0 0 0 0 0 2 6 7 9 14 18 19 19 19 20 21 22 22 22 22 20 14 11 11 9 7 4 4 4 4 3 1 0 0 0 0 0 0 0 0 0 0 0 0
0 0 0 0 0 0 0 0 0 1 4 7 7 7 11 15 18 19 19 20 20 20 20 19 19 15 11 9 9 8 6 4 3 3 2 2 1 0 0 0 0 0 0 0 0 0 0 0 0
0 0 0 0 0 0 0 0 0 1 5 7 6 6 8 12 15 17 19 21 21 21 19 17 14 11 9 8 7 6 4 3 3 2 1 1 1 0 0 0 0 0 0 0 0 0 0 0 0
0 0 0 0 0 0 0 0 0 1 4 5 5 5 7 9 10 13 16 21 22 21 18 15 12 9 7 6 5 4 3 3 3 1 0 0 0 0 0 0 0 0 0 0 0 0 0 0 0
0 0 0 0 0 0 0 0 0 1 2 3 4 4 5 6 6 8 12 18 21 21 17 13 10 8 6 5 4 3 3 3 2 1 0 0 0 0 1 0 0 0 0 0 0 0 0 0 0
0 0 0 0 0 0 0 0 0 0 1 2 3 3 4 4 4 5 8 14 18 19 16 12 9 6 5 4 3 3 3 2 1 0 0 0 0 0 0 0 0 0 0 0 0 0 0 0 0
0 0 0 0 0 0 0 0 0 0 0 1 2 3 3 3 3 3 5 10 14 15 15 13 9 5 4 4 3 3 2 1 0 0 0 0 0 0 0 0 0 0 0 0 0 0 0 0 0
0 0 0 0 0 0 0 0 0 0 0 0 1 2 3 3 3 2 4 8 11 12 14 14 9 5 4 3 2 2 1 0 0 0 0 0 0 0 0 0 0 0 0 0 0 0 0 0 0
0 0 0 0 0 0 0 0 0 0 0 0 0 1 2 2 2 3 4 6 9 11 13 13 9 6 4 2 1 1 0 0 0 0 0 0 0 0 0 0 0 0 0 0 0 0 0 0 0
0 0 0 0 0 0 0 0 0 0 0 0 0 0 1 1 1 2 4 5 7 10 12 11 8 5 4 2 1 0 0 0 0 0 0 0 0 0 0 0 0 0 0 0 0 0 0 0 0
0 0 0 0 0 0 0 0 0 0 0 0 0 0 0 0 0 1 3 4 6 9 10 8 6 4 3 3 2 0 0 0 0 0 0 0 0 0 0 0 0 0 0 0 0 0 0 0 0
0 0 0 0 0 0 0 0 0 0 0 0 0 0 0 0 0 1 2 3 5 8 8 6 4 3 3 3 1 0 0 0 0 0 0 0 0 0 0 0 0 0 0 0 0 0 0 0 0
0 0 0 0 0 0 0 0 0 0 0 0 0 0 0 0 0 0 1 2 4 8 8 5 3 3 3 2 1 0 0 0 0 0 0 0 0 0 0 0 0 0 0 0 0 0 0 0 0
0 0 0 0 0 0 0 0 0 0 0 0 0 0 0 0 0 0 0 1 3 6 7 5 3 3 3 2 0 0 0 0 0 0 0 0 0 0 0 0 0 0 0 0 0 0 0 0 0
0 0 0 0 0 0 0 0 0 0 0 0 0 0 0 0 0 0 0 0 2 5 6 5 3 3 3 2 0 0 0 0 0 0 0 0 0 0 0 0 0 0 0 0 0 0 0 0 0
0 0 0 0 0 0 0 0 0 0 0 0 0 0 0 0 0 0 0 0 1 3 5 5 4 3 2 1 0 0 0 0 0 0 0 0 0 0 0 0 0 0 0 0 0 0 0 0 0
0 0 0 0 0 0 0 0 0 0 0 0 0 0 0 0 0 0 0 0 1 2 4 5 4 2 1 0 0 0 0 0 0 0 0 0 0 0 0 0 0 0 0 0 0 0 0 0 0
0 0 0 0 0 0 0 0 0 0 0 0 0 0 0 0 0 0 0 0 0 1 2 4 3 1 0 0 0 0 0 0 0 0 0 0 0 0 0 0 0 0 0 0 0 0 0 0 0
Wind_Speed
2 2 3 4 5 3 4 6 4 2 1 1 2 6 7 4 4 5 3 10 12 12 11 14 16 16 16 16 16 15 15 15 14 15 15 15 15 14 14 13 14 13 13 13 13 13 13 12 12
1 1 3 4 5 3 6 6 5 5 5 3 3 4 5 3 3 6 6 11 14 13 11 12 16 16 16 16 16 15 15 15 14 14 14 14 14 14 13 13 13 13 13 13 12 12 12 11 11
1 1 3 4 4 8 6 6 8 4 3 2 3 4 4 4 3 4 7 13 13 10 9 12 16 16 16 16 16 15 15 15 14 14 13 13 14 13 13 13 13 13 12 12 12 11 11 10 10
2 2 3 2 7 7 6 4 5 4 1 2 4 4 3 1 3 6 12 14 13 9 9 12 16 16 16 16 15 15 15 15 14 14 13 13 13 13 12 12 12 12 12 11 11 10 10 10 10
2 3 3 4 7 5 5 5 3 3 2 1 5 5 2 4 7 12 13 14 13 10 9 11 15 16 15 15 15 15 14 14 14 13 13 13 13 13 12 11 11 11 11 10 10 9 9 9 9
2 3 4 7 7 4 5 4 2 2 2 2 5 6 2 2 8 11 12 12 12 11 10 10 14 15 15 14 14 14 14 14 13 13 13 13 12 12 11 11 10 10 10 9 9 9 9 9 9
4 4 5 6 5 5 6 4 4 3 3 3 6 7 3 2 6 9 11 11 11 10 9 8 8 10 13 14 13 13 13 13 13 12 12 12 11 11 11 10 10 9 8 8 8 8 8 8 8
3 4 4 4 5 6 4 3 3 5 3 2 4 9 7 6 7 10 10 10 9 8 8 7 7 7 7 8 12 13 12 12 12 12 11 11 10 10 10 8 9 8 8 7 7 7 7 7 7
3 3 6 6 6 5 3 3 2 1 4 2 2 4 7 11 12 12 11 9 8 8 7 7 7 7 6 6 9 10 11 11 11 9 11 9 5 5 5 7 8 8 7 7 7 6 6 5 5
4 6 9 4 3 3 2 2 3 3 3 3 4 5 9 11 13 13 13 11 10 9 8 7 7 7 6 6 6 5 5 6 5 5 5 4 4 3 5 7 7 7 6 6 5 5 4 4 2
5 8 5 3 2 2 2 1 1 6 3 5 8 11 10 10 11 11 11 11 10 9 8 7 7 7 6 5 5 3 3 3 4 5 5 4 3 3 3 2 3 3 4 3 3 3 2 1 1
4 4 4 2 1 0 0 1 1 2 4 5 10 13 11 11 10 11 10 9 9 8 8 7 7 7 6 6 5 4 3 3 3 4 5 4 3 3 2 2 2 2 1 2 2 1 1 2 1
6 4 3 2 1 0 1 1 2 0 2 6 9 10 10 10 8 7 8 8 9 8 7 7 7 8 7 6 5 4 4 4 4 4 4 5 4 3 3 2 1 1 1 1 1 1 2 2 1
5 4 3 2 2 1 2 1 2 2 4 7 9 8 8 9 9 8 8 8 8 8 8 7 7 7 7 6 5 4 4 4 4 3 4 5 4 4 3 2 2 1 1 1 1 1 1 1 1
3 3 2 3 3 2 3 1 3 5 6 7 7 7 7 7 8 9 8 8 8 8 8 8 8 7 7 6 5 4 4 4 3 3 4 4 4 4 3 3 2 1 1 2 2 2 2 2 2
3 4 5 5 5 3 6 6 5 4 8 7 6 6 6 6 6 6 7 7 7 7 7 7 7 8 7 6 5 4 4 4 3 3 3 4 4 4 4 3 2 1 1 2 2 1 2 2 1
4 7 8 4 5 4 6 6 4 3 7 7 6 6 6 5 4 5 6 7 7 8 8 7 6 7 7 7 5 4 4 4 3 3 3 3 4 4 4 2 2 2 2 1 1 1 1 1 1
8 7 6 6 4 5 5 5 3 3 6 7 6 6 6 6 6 5 6 6 7 6 7 7 7 6 6 5 5 4 3 3 3 3 3 4 3 4 3 2 2 2 2 1 2 2 2 1 0
5 6 5 5 4 4 6 5 4 3 4 6 6 6 6 6 4 4 5 6 6 6 6 7 7 6 6 5 4 4 3 3 2 2 3 4 4 4 4 2 2 2 2 2 2 2 2 2 1
5 6 4 2 2 3 4 5 4 4 6 8 9 8 7 5 4 4 5 5 6 6 6 6 7 7 6 5 3 3 3 2 2 2 2 3 4 3 3 3 2 2 2 2 2 2 1 1 2
6 8 7 5 1 1 3 3 4 3 3 4 5 6 7 8 7 5 5 5 5 6 6 6 6 6 6 5 4 4 3 3 2 1 1 2 3 3 3 3 3 2 2 2 2 2 2 1 1
7 6 7 6 4 3 5 5 6 5 4 5 5 5 5 5 6 5 5 5 5 5 5 5 6 6 5 6 6 7 5 4 3 2 2 2 2 3 3 3 3 3 2 2 2 2 2 2 1
4 5 5 5 4 2 2 4 6 4 7 8 6 6 5 5 6 6 5 5 4 4 4 5 5 5 5 5 6 6 4 3 2 2 3 2 1 2 2 3 3 2 2 2 2 2 2 2 2
4 5 4 3 2 5 6 5 6 6 9 8 6 5 5 5 4 4 4 4 3 3 4 4 5 5 5 5 5 5 6 5 5 4 3 2 1 1 2 2 2 2 2 2 2 2 2 1 1
5 6 3 2 3 6 5 5 7 5 4 8 9 7 5 5 5 4 5 5 4 4 4 4 5 5 4 5 5 4 5 6 6 5 4 3 2 1 2 2 2 2 2 2 2 2 1 1 1
6 7 6 6 6 2 3 6 5 3 1 3 5 5 5 4 4 4 4 5 4 4 4 4 5 4 5 5 4 4 4 4 3 4 4 4 3 2 2 2 2 2 2 2 2 1 1 1 1
5 4 4 4 2 2 3 2 3 1 2 3 4 5 4 3 3 3 3 4 4 4 4 5 5 4 4 4 4 4 4 4 3 3 3 3 2 2 2 2 2 2 2 2 2 1 1 1 1
3 4 4 4 4 3 3 4 4 3 3 2 3 3 3 2 2 2 3 3 3 3 3 3 4 4 4 4 4 4 3 3 4 4 3 3 3 2 3 2 2 2 2 2 2 1 1 1 0
2 2 3 3 3 5 4 5 2 4 4 4 3 2 3 3 3 2 2 2 3 3 3 3 3 3 3 3 3 4 3 3 4 3 3 3 2 3 3 2 2 2 2 2 2 1 1 1 0
2 3 4 5 3 2 3 4 2 1 3 3 2 2 2 2 2 2 3 3 4 3 3 3 3 3 3 3 3 3 3 3 3 3 3 3 3 2 2 2 2 1 2 2 2 2 1 1 1
Wind_Direction
295 16 66 60 65 70 227 241 233 231 204 202 116 110 118 120 146 155 128 137 134 142 144 142 140 136 133 129 126 123 119 116 114 112 110 108 106 103 101 99 97 96 93 91 90 88 86 84 83
45 45 64 70 111 175 243 236 228 223 197 158 96 90 86 83 88 110 124 140 137 140 142 142 139 136 133 130 128 126 122 120 117 116 113 111 107 104 102 101 98 96 93 91 90 88 85 83 81
96 114 99 104 161 192 216 225 218 236 238 153 88 66 104 121 124 129 141 138 133 135 139 142 138 136 134 132 130 128 125 123 120 118 116 113 109 106 103 102 99 96 93 91 90 87 85 83 81
101 80 73 134 213 218 210 225 197 190 252 84 111 70 64 49 155 136 135 134 131 132 135 140 138 137 135 134 131 129 126 124 122 120 118 116 114 110 105 102 99 98 96 94 91 87 84 82 81
87 107 135 210 229 237 234 240 199 174 167 125 115 104 46 349 111 125 132 134 134 133 135 141 139 138 136 135 132 130 127 126 124 122 121 119 117 113 109 105 103 101 99 97 94 90 85 81 79
114 113 157 211 227 240 245 232 201 159 159 126 111 112 111 89 117 132 133 135 135 134 135 140 139 137 136 134 133 131 129 127 125 124 123 121 118 115 114 110 106 103 102 99 96 92 86 83 80
150 152 189 199 212 232 234 214 183 179 170 180 138 117 132 141 133 131 128 128 129 130 130 132 137 137 136 133 131 129 128 127 125 124 121 119 118 117 115 112 109 106 103 100 97 93 88 85 79
159 150 197 203 196 221 222 191 189 171 176 138 122 136 163 174 140 123 120 121 123 125 128 128 127 128 129 131 131 129 127 125 123 120 117 115 113 113 112 110 109 108 105 101 98 95 89 81 77
140 165 209 204 193 214 206 174 236 146 113 72 88 151 157 142 130 122 121 120 126 130 132 131 129 127 126 128 129 126 124 121 119 115 113 106 97 98 103 108 109 109 106 103 98 93 86 74 68
168 201 217 207 198 201 206 164 166 90 82 69 61 81 115 129 133 135 141 144 146 147 144 139 136 134 131 127 120 118 118 116 111 111 111 104 101 99 102 104 104 102 98 96 93 84 74 64 48
187 207 217 237 241 205 187 207 120 129 147 172 151 143 137 135 137 140 147 150 153 151 146 145 142 137 132 127 126 118 114 113 112 116 116 112 99 93 85 86 82 74 72 62 57 50 45 55 59
200 222 213 240 282 338 205 136 72 139 185 173 150 147 143 144 150 150 149 149 146 146 148 148 144 138 135 133 131 130 128 124 125 129 127 122 114 106 105 98 96 82 72 70 53 42 33 41 52
220 218 216 242 291 309 67 95 120 344 144 125 127 135 144 146 146 142 141 142 141 145 150 152 148 144 142 136 140 135 135 134 135 131 130 130 128 128 122 114 107 99 89 90 73 47 40 39 37
211 209 223 231 246 276 139 272 110 220 133 126 134 145 151 151 148 142 143 146 147 149 152 150 149 148 144 142 142 141 138 134 131 134 138 134 132 133 129 122 115 107 107 105 98 82 65 40 40
205 190 251 237 209 214 124 307 218 195 136 137 149 150 151 155 152 155 158 154 154 153 152 150 151 146 145 140 139 137 138 131 132 134 134 132 132 134 130 125 121 122 106 95 82 55 54 50 42
173 176 209 231 191 191 146 217 230 182 148 155 162 159 158 163 164 162 155 148 148 148 151 153 151 146 145 140 136 135 133 129 128 129 128 129 131 132 127 125 129 119 101 99 99 77 62 43 36
175 194 199 217 193 167 163 209 226 181 155 165 172 170 166 160 158 161 156 152 151 151 149 146 144 146 144 137 130 128 127 126 129 129 131 133 133 134 130 131 134 123 106 96 99 73 88 64 17
189 184 185 194 196 166 179 209 221 184 158 168 179 178 170 168 180 166 153 150 146 146 144 142 142 142 136 128 120 118 116 123 127 132 138 138 137 135 130 127 128 121 110 90 86 89 65 76 34
178 174 182 204 192 166 191 207 224 209 165 170 180 179 177 183 182 157 149 143 137 139 143 147 148 147 141 139 142 141 148 147 138 140 141 138 135 133 129 128 126 122 126 133 117 97 71 31 26
187 172 181 215 198 179 186 224 234 213 198 187 182 184 183 174 159 153 146 144 147 152 155 156 157 155 156 156 152 142 136 134 135 136 135 142 139 138 137 137 138 131 123 114 110 106 91 31 37
200 185 180 179 135 73 127 258 246 236 212 196 189 181 174 172 167 164 155 155 152 157 164 164 163 160 157 145 124 108 87 80 90 124 146 154 146 144 142 145 139 136 136 147 149 140 132 131 10
209 192 177 171 152 208 168 216 243 215 211 209 203 185 177 175 167 162 158 158 164 170 166 162 158 157 155 147 146 149 152 160 180 170 156 145 143 143 144 144 142 145 142 145 158 135 137 136 138
193 174 173 169 161 185 187 189 254 198 206 212 206 197 185 177 169 166 163 165 163 159 159 159 152 151 151 152 154 154 150 145 135 134 136 142 143 144 145 146 143 145 142 147 144 132 127 141 157
129 106 89 83 118 212 205 185 243 212 206 196 196 193 185 172 162 159 150 137 126 123 134 146 150 150 152 153 155 158 154 147 145 151 155 157 149 144 150 145 143 145 145 152 151 141 137 144 153
127 127 127 168 201 225 179 186 240 238 208 191 187 190 183 167 157 149 142 140 138 136 139 144 151 150 150 150 154 160 159 158 164 165 166 160 159 166 181 153 148 147 153 151 141 133 143 155 161
184 160 166 176 189 221 175 206 245 262 216 161 170 167 157 159 159 154 156 152 152 150 148 150 153 153 154 153 154 150 153 156 162 166 163 168 175 178 172 159 149 147 146 139 129 126 153 140 164
163 185 163 126 113 140 223 258 298 356 75 107 136 139 148 162 159 155 148 148 150 154 159 158 153 149 158 159 148 145 153 155 154 157 154 158 161 159 154 154 150 150 144 135 130 130 148 140 171
151 151 123 136 154 191 223 221 214 197 186 139 130 148 149 128 130 141 148 150 145 149 145 140 141 149 152 153 155 151 159 160 152 150 159 159 157 147 144 143 154 154 146 135 126 130 126 121 201
126 141 133 132 158 162 193 241 223 200 183 167 164 157 145 137 143 151 146 134 123 113 120 124 128 124 128 139 141 140 149 154 150 154 162 159 153 151 158 159 160 163 159 146 138 152 152 156 24
150 161 144 151 192 174 172 255 313 196 150 141 140 116 117 122 129 127 124 113 105 109 117 124 124 127 138 138 129 132 140 145 148 149 151 148 149 156 158 152 156 173 173 164 162 183 189 192 224